Pagosa Springs, CO

6:57 AM MDT on May 23, 2017 (GMT -0600)
Pagosa Springs

Weather History for KPSO - January, 2012

Change the Weather History Date:

Tuesday, January 17, 2012

  Actual Average (KE33) Record (KE33)
Temperature  
Mean Temperature 20 °F -  
Max Temperature 31 °F 36 °F 50 °F (2009)
Min Temperature 9 °F 18 °F -9 °F (2008)
Degree Days  
Heating Degree Days 45    
Moisture  
Dew Point 13 °F    
Average Humidity 69    
Maximum Humidity 95    
Minimum Humidity 45    
Precipitation  
Precipitation 0.00 in - - ()
Sea Level Pressure  
Sea Level Pressure 30.12 in    
Wind  
Wind Speed 3 mph (SSW)    
Max Wind Speed 15 mph    
Max Gust Speed 21 mph    
Visibility 10 miles    
Events      
Averages and records for this station are not official NWS values.
T = Trace of Precipitation, MM = Missing Value Source: NWS Daily Summary

Daily Weather History Graph

Daily Weather History Graph

Search for Another Location

Airport or City:

Trip Planner

Search our weather history database for the weather conditions in past years. The results will help you decide how hot, cold, wet, or windy it might be!

Date:

Astronomy

Jan. 17, 2012 Rise Set
Actual Time 7:20 AM MST 5:16 PM MST
Civil Twilight 6:52 AM MST 5:44 PM MST
Nautical Twilight 6:20 AM MST 6:16 PM MST
Astronomical Twilight 5:49 AM MST 6:47 PM MST
Moon 1:44 AM MST (1/17) 12:11 PM MST (1/17)
Length of Visible Light 10h 52m
Length of Day
9h 55m
Waning Crescent, 34% of the Moon is Illuminated
Jan 17
Waning Crescent
Jan 23
New
Jan 30
First Quarter
Feb 7
Full
Feb 14
Last Quarter

Hourly Weather History & Observations

Time (MST) Temp. Windchill Dew Point Humidity Pressure Visibility Wind Dir Wind Speed Gust Speed Precip Events Conditions
12:15 AM 14.2 °F - 11.8 °F 90% 30.00 in 10.0 mi Calm Calm - N/A   Clear
12:35 AM 13.3 °F - 12.0 °F 95% 30.01 in 10.0 mi Calm Calm - N/A   Clear
12:55 AM 15.3 °F - 14.0 °F 95% 30.01 in 10.0 mi Calm Calm - N/A   Clear
1:15 AM 14.9 °F - 12.9 °F 92% 30.02 in 10.0 mi Calm Calm - N/A   Clear
1:35 AM 11.7 °F - 10.0 °F 93% 30.02 in 10.0 mi Calm Calm - N/A   Clear
1:55 AM 12.2 °F 6.1 °F 10.6 °F 93% 30.03 in 10.0 mi ENE 3.5 mph - N/A   Clear
2:15 AM 12.7 °F - 10.8 °F 92% 30.05 in 10.0 mi Calm Calm - N/A   Clear
2:35 AM 13.6 °F - 11.3 °F 90% 30.05 in 10.0 mi Calm Calm - N/A   Clear
2:55 AM 9.9 °F - 7.7 °F 91% 30.05 in 10.0 mi Calm Calm - N/A   Scattered Clouds
3:15 AM - - - N/A% 30.05 in 10.0 mi Calm Calm - N/A   Scattered Clouds
3:35 AM - - - N/A% 30.06 in 10.0 mi NNE 3.5 mph - N/A   Scattered Clouds
3:55 AM - - - N/A% 30.06 in 10.0 mi Calm Calm - N/A   Mostly Cloudy
4:15 AM - - - N/A% 30.05 in 10.0 mi NNE 4.6 mph - N/A   Mostly Cloudy
4:35 AM - - - N/A% 30.05 in 10.0 mi Calm Calm - N/A   Scattered Clouds
4:55 AM - - - N/A% 30.06 in 10.0 mi Calm Calm - N/A   Mostly Cloudy
5:15 AM - - - N/A% 30.07 in 10.0 mi Calm Calm - N/A   Overcast
5:35 AM - - - N/A% 30.07 in 10.0 mi Calm Calm - N/A   Scattered Clouds
5:55 AM - - - N/A% 30.08 in 10.0 mi Calm Calm - N/A   Clear
6:15 AM - - - N/A% 30.07 in 10.0 mi Calm Calm - N/A   Scattered Clouds
6:35 AM - - - N/A% 30.09 in 10.0 mi Calm Calm - N/A   Overcast
6:55 AM - - - N/A% 30.10 in 10.0 mi Calm Calm - N/A   Overcast
7:15 AM - - - N/A% 30.11 in 10.0 mi Calm Calm - N/A   Overcast
7:35 AM - - - N/A% 30.12 in 10.0 mi Calm Calm - N/A   Mostly Cloudy
7:55 AM - - - N/A% 30.13 in 10.0 mi Calm Calm - N/A   Overcast
8:15 AM - - - N/A% 30.14 in 5.0 mi Calm Calm - N/A   Haze
8:35 AM - - - N/A% 30.15 in 7.0 mi NNE 4.6 mph - N/A   Overcast
8:55 AM - - - N/A% 30.16 in 10.0 mi NNE 4.6 mph - N/A   Overcast
9:15 AM - - - N/A% 30.17 in 10.0 mi NNE 3.5 mph - N/A   Overcast
9:35 AM - - - N/A% 30.18 in 10.0 mi Calm Calm - N/A   Overcast
9:55 AM - - - N/A% 30.19 in 10.0 mi SE 4.6 mph - N/A   Overcast
10:15 AM - - - N/A% 30.19 in 7.0 mi SSE 3.5 mph - N/A   Overcast
10:35 AM - - - N/A% 30.19 in 10.0 mi SSW 5.8 mph - N/A   Mostly Cloudy
10:55 AM 23.9 °F 15.0 °F 22.3 °F 94% 30.19 in 10.0 mi South 8.1 mph - N/A   Scattered Clouds
11:15 AM 24.6 °F 14.4 °F 22.8 °F 93% 30.19 in 10.0 mi South 10.4 mph - N/A   Clear
11:35 AM 25.7 °F 16.4 °F 21.9 °F 86% 30.19 in 10.0 mi South 9.2 mph - N/A   Clear
11:55 AM 27.1 °F 17.5 °F 19.8 °F 74% 30.17 in 10.0 mi South 10.4 mph - N/A   Clear
12:15 PM 28.4 °F 18.0 °F 17.4 °F 63% 30.17 in 10.0 mi SW 12.7 mph - N/A   Clear
12:35 PM 28.4 °F 18.5 °F 16.2 °F 60% 30.16 in 10.0 mi SW 11.5 mph 17.3 mph N/A   Scattered Clouds
12:55 PM 29.3 °F 19.6 °F 16.0 °F 58% 30.15 in 10.0 mi SW 11.5 mph 19.6 mph N/A   Mostly Cloudy
1:15 PM 30.0 °F 19.5 °F 14.5 °F 53% 30.14 in 10.0 mi SW 13.8 mph 19.6 mph N/A   Overcast
1:35 PM 31.1 °F 20.9 °F 12.6 °F 46% 30.14 in 10.0 mi SSW 13.8 mph 20.7 mph N/A   Mostly Cloudy
1:55 PM 30.4 °F 19.5 °F 12.7 °F 48% 30.14 in 10.0 mi SW 15.0 mph 19.6 mph N/A   Mostly Cloudy
2:15 PM 30.2 °F 20.2 °F 11.7 °F 46% 30.14 in 10.0 mi SW 12.7 mph 20.7 mph N/A   Scattered Clouds
2:35 PM 30.0 °F 20.0 °F 10.8 °F 45% 30.14 in 10.0 mi SW 12.7 mph 20.7 mph N/A   Scattered Clouds
2:55 PM 29.8 °F 19.3 °F 11.8 °F 47% 30.15 in 10.0 mi SW 13.8 mph 19.6 mph N/A   Clear
3:15 PM 29.8 °F 23.0 °F 12.0 °F 48% 30.16 in 10.0 mi SW 6.9 mph - N/A   Clear
3:35 PM 29.5 °F 19.9 °F 12.0 °F 48% 30.16 in 10.0 mi SW 11.5 mph 18.4 mph N/A   Clear
3:55 PM 29.1 °F 21.3 °F 11.7 °F 48% 30.17 in 10.0 mi SSW 8.1 mph 16.1 mph N/A   Clear
4:15 PM 28.6 °F 19.9 °F 11.1 °F 48% 30.17 in 10.0 mi SSW 9.2 mph 16.1 mph N/A   Clear
4:35 PM 28.4 °F 20.4 °F 10.8 °F 48% 30.17 in 10.0 mi SSW 8.1 mph - N/A   Clear
5:15 PM 26.1 °F 20.5 °F 12.0 °F 55% 30.19 in 10.0 mi SSW 4.6 mph - N/A   Clear
5:35 PM 24.8 °F - 10.2 °F 54% 30.19 in 10.0 mi Calm Calm - N/A   Clear
5:55 PM 21.2 °F - 9.1 °F 60% 30.18 in 10.0 mi Calm Calm - N/A   Clear
6:15 PM 22.8 °F - 9.3 °F 56% 30.19 in 10.0 mi Calm Calm - N/A   Clear
6:55 PM 16.9 °F 11.5 °F 10.6 °F 76% 30.20 in 10.0 mi NE 3.5 mph - N/A   Clear
7:35 PM 11.5 °F 5.3 °F 8.4 °F 87% 30.22 in 10.0 mi NNE 3.5 mph - N/A   Clear
7:55 PM 14.2 °F - 10.9 °F 87% 30.22 in 10.0 mi Calm Calm - N/A   Clear
8:15 PM 8.4 °F - 5.9 °F 89% 30.22 in 10.0 mi Calm Calm - N/A   Clear
8:35 PM 10.2 °F - 7.0 °F 87% 30.23 in 10.0 mi Calm Calm - N/A   Clear
8:55 PM 7.9 °F - 5.4 °F 89% 30.23 in 10.0 mi Calm Calm - N/A   Clear
9:15 PM 10.6 °F 2.5 °F 8.6 °F 92% 30.23 in 10.0 mi NNE 4.6 mph - N/A   Clear
9:35 PM 8.4 °F -1.6 °F 5.4 °F 87% 30.22 in 10.0 mi NNE 5.8 mph - N/A   Clear
9:55 PM 9.5 °F - 7.0 °F 90% 30.23 in 10.0 mi Calm Calm - N/A   Clear
10:15 PM 8.4 °F - 5.7 °F 89% 30.23 in 10.0 mi Calm Calm - N/A   Mostly Cloudy
10:35 PM 8.6 °F - 5.7 °F 88% 30.23 in 10.0 mi Calm Calm - N/A   Overcast
10:55 PM 8.1 °F - 4.1 °F 84% 30.23 in 10.0 mi Calm Calm - N/A   Scattered Clouds
11:15 PM 8.6 °F - 5.4 °F 87% 30.24 in 10.0 mi Calm Calm - N/A   Clear
11:35 PM 7.7 °F - 3.7 °F 84% 30.23 in 10.0 mi Calm Calm - N/A   Clear
11:55 PM 7.2 °F - 4.6 °F 89% 30.23 in 10.0 mi Calm Calm - N/A   Clear